| time (UTC) | temp F | wind direction | speed MPH | gust MPH | rain 1hr in | rain 24hr in | rain mn in | humidity % | barometer mb |
| 20260510220002 | 73 | 222 | 2.0 | 7.0 | 0.00 | 0.00 | 0.00 | 24 | 944.1 |
| 20260510214600 | 72 | 273 | 2.0 | 4.0 | 0.00 | 0.00 | 0.00 | 24 | 944.3 |
| 20260510213059 | 72 | 220 | 1.0 | 5.0 | 0.00 | 0.00 | 0.00 | 25 | 944.4 |
| 20260510211556 | 71 | 146 | 2.0 | 5.0 | 0.00 | 0.00 | 0.00 | 25 | 944.5 |
| 20260510210053 | 71 | 148 | 1.0 | 8.0 | 0.00 | 0.00 | 0.00 | 25 | 944.8 |
| 20260510204600 | 71 | 193 | 2.0 | 6.0 | 0.00 | 0.00 | 0.00 | 26 | 945.0 |
| 20260510203050 | 70 | 252 | 1.0 | 8.0 | 0.00 | 0.00 | 0.00 | 25 | 945.2 |
| 20260510201547 | 70 | 128 | 2.0 | 6.0 | 0.00 | 0.00 | 0.00 | 26 | 945.2 |
| 20260510200112 | 70 | 144 | 4.0 | 9.0 | 0.00 | 0.00 | 0.00 | 25 | 945.3 |
| 20260510194553 | 69 | 205 | 1.0 | 8.0 | 0.00 | 0.00 | 0.00 | 26 | 945.4 |
| 20260510193046 | 69 | 126 | 3.0 | 8.0 | 0.00 | 0.00 | 0.00 | 25 | 945.6 |
| 20260510191551 | 69 | 192 | 1.0 | 7.0 | 0.00 | 0.00 | 0.00 | 26 | 945.8 |
| 20260510190037 | 69 | 188 | 1.0 | 5.0 | 0.00 | 0.00 | 0.00 | 26 | 946.0 |
| 20260510184533 | 69 | 188 | 2.0 | 8.0 | 0.00 | 0.00 | 0.00 | 26 | 946.3 |
| 20260510183042 | 68 | 150 | 2.0 | 7.0 | 0.00 | 0.00 | 0.00 | 25 | 946.4 |
| 20260510181529 | 67 | 132 | 4.0 | 9.0 | 0.00 | 0.00 | 0.00 | 26 | 946.5 |
| 20260510180027 | 66 | 121 | 1.0 | 4.0 | 0.00 | 0.00 | 0.00 | 26 | 946.7 |
| 20260510174525 | 66 | 110 | 0.0 | 6.0 | 0.00 | 0.00 | 0.00 | 27 | 946.8 |
| 20260510173022 | 65 | 94 | 0.0 | 3.0 | 0.00 | 0.00 | 0.00 | 28 | 946.8 |
| 20260510171522 | 64 | 96 | 1.0 | 4.0 | 0.00 | 0.00 | 0.00 | 27 | 947.1 |
| 20260510170021 | 64 | 94 | 1.0 | 7.0 | 0.00 | 0.00 | 0.00 | 26 | 947.2 |
| 20260510164523 | 63 | 94 | 1.0 | 8.0 | 0.00 | 0.00 | 0.00 | 27 | 947.2 |
| 20260510163017 | 63 | 96 | 1.0 | 7.0 | 0.00 | 0.00 | 0.00 | 27 | 947.3 |
| 20260510161516 | 62 | 145 | 0.0 | 2.0 | 0.00 | 0.00 | 0.00 | 26 | 947.3 |
| 20260510160023 | 63 | 145 | 1.0 | 4.0 | 0.00 | 0.00 | 0.00 | 26 | 947.4 |
| 20260510154513 | 62 | 141 | 0.0 | 4.0 | 0.00 | 0.00 | 0.00 | 27 | 947.6 |
| 20260510153010 | 61 | 144 | 1.0 | 5.0 | 0.00 | 0.00 | 0.00 | 28 | 947.6 |
| 20260510151507 | 60 | 157 | 1.0 | 5.0 | 0.00 | 0.00 | 0.00 | 29 | 947.7 |
| 20260510150004 | 59 | 158 | 0.0 | 6.0 | 0.00 | 0.00 | 0.00 | 33 | 947.7 |
| 20260510144600 | 58 | 137 | 0.0 | 3.0 | 0.00 | 0.00 | 0.00 | 35 | 947.8 |
| 20260510143058 | 56 | 152 | 0.0 | 3.0 | 0.00 | 0.00 | 0.00 | 38 | 947.7 |
| 20260510141600 | 54 | 148 | 0.0 | 5.0 | 0.00 | 0.00 | 0.00 | 40 | 947.7 |
| 20260510140050 | 51 | 167 | 0.0 | 2.0 | 0.00 | 0.00 | 0.00 | 43 | 947.8 |
| 20260510134544 | 49 | 169 | 0.0 | 2.0 | 0.00 | 0.00 | 0.00 | 48 | 947.9 |
| 20260510133049 | 46 | 276 | 0.0 | 1.0 | 0.00 | 0.00 | 0.00 | 51 | 948.0 |
| 20260510131537 | 43 | 277 | 0.0 | 0.0 | 0.00 | 0.00 | 0.00 | 55 | 948.1 |
| 20260510130037 | 41 | 277 | 0.0 | 0.0 | 0.00 | 0.00 | 0.00 | 56 | 947.9 |
| 20260510124540 | 39 | 277 | 0.0 | 0.0 | 0.00 | 0.00 | 0.00 | 59 | 947.9 |
| 20260510123042 | 36 | 277 | 0.0 | 0.0 | 0.00 | 0.00 | 0.00 | 64 | 947.9 |
| 20260510121533 | 35 | 277 | 0.0 | 1.0 | 0.00 | 0.00 | 0.00 | 65 | 947.8 |
| 20260510120033 | 34 | 277 | 0.0 | 1.0 | 0.00 | 0.00 | 0.00 | 65 | 947.6 |
| 20260510114534 | 34 | 305 | 0.0 | 1.0 | 0.00 | 0.00 | 0.00 | 65 | 947.4 |
| 20260510113033 | 34 | 305 | 0.0 | 1.0 | 0.00 | 0.00 | 0.00 | 65 | 947.3 |
| 20260510111527 | 33 | 305 | 0.0 | 2.0 | 0.00 | 0.00 | 0.00 | 65 | 947.3 |
| 20260510110024 | 34 | 304 | 0.0 | 1.0 | 0.00 | 0.00 | 0.00 | 64 | 947.4 |
| 20260510104523 | 34 | 305 | 0.0 | 2.0 | 0.00 | 0.00 | 0.00 | 63 | 947.4 |
| 20260510103021 | 34 | 309 | 0.0 | 2.0 | 0.00 | 0.00 | 0.00 | 63 | 947.4 |
| 20260510101520 | 34 | 309 | 0.0 | 1.0 | 0.00 | 0.00 | 0.00 | 63 | 947.5 |
| 20260510100018 | 34 | 309 | 0.0 | 0.0 | 0.00 | 0.00 | 0.00 | 62 | 947.4 |
| 20260510094515 | 35 | 309 | 0.0 | 0.0 | 0.00 | 0.00 | 0.00 | 61 | 947.4 |
| 20260510093011 | 36 | 309 | 0.0 | 0.0 | 0.00 | 0.00 | 0.00 | 59 | 947.3 |
| 20260510091511 | 37 | 309 | 0.0 | 0.0 | 0.00 | 0.00 | 0.00 | 57 | 947.2 |
| 20260510090006 | 38 | 309 | 0.0 | 0.0 | 0.00 | 0.00 | 0.00 | 56 | 947.2 |
| 20260510084503 | 39 | 309 | 0.0 | 1.0 | 0.00 | 0.00 | 0.00 | 55 | 947.1 |
| 20260510083100 | 40 | 309 | 0.0 | 0.0 | 0.00 | 0.00 | 0.00 | 54 | 947.1 |
| 20260510081559 | 40 | 309 | 0.0 | 1.0 | 0.00 | 0.00 | 0.00 | 52 | 947.0 |
| 20260510080100 | 40 | 309 | 0.0 | 0.0 | 0.00 | 0.00 | 0.00 | 52 | 947.0 |
| 20260510074557 | 40 | 309 | 0.0 | 1.0 | 0.00 | 0.00 | 0.00 | 53 | 947.0 |
| 20260510073105 | 42 | 309 | 0.0 | 1.0 | 0.00 | 0.00 | 0.00 | 50 | 947.0 |
| 20260510071557 | 43 | 310 | 0.0 | 1.0 | 0.00 | 0.00 | 0.00 | 49 | 947.0 |
| 20260510070047 | 43 | 310 | 0.0 | 2.0 | 0.00 | 0.00 | 0.00 | 50 | 947.0 |
| 20260510064553 | 44 | 310 | 0.0 | 0.0 | 0.00 | 0.00 | 0.00 | 46 | 946.8 |
| 20260510063045 | 45 | 310 | 0.0 | 2.0 | 0.00 | 0.00 | 0.00 | 45 | 946.7 |
| 20260510061539 | 45 | 310 | 0.0 | 0.0 | 0.00 | 0.00 | 0.00 | 47 | 946.6 |
| 20260510060036 | 46 | 310 | 0.0 | 0.0 | 0.00 | 0.00 | 0.00 | 45 | 946.6 |
| 20260510054535 | 46 | 310 | 0.0 | 0.0 | 0.00 | 0.00 | 0.00 | 45 | 946.5 |
| 20260510053036 | 46 | 310 | 0.0 | 0.0 | 0.00 | 0.00 | 0.00 | 44 | 946.4 |
| 20260510051534 | 46 | 310 | 0.0 | 1.0 | 0.00 | 0.00 | 0.00 | 45 | 946.2 |
| 20260510050031 | 46 | 310 | 0.0 | 2.0 | 0.00 | 0.00 | 0.00 | 44 | 946.2 |
| 20260510044538 | 46 | 310 | 0.0 | 2.0 | 0.00 | 0.00 | 0.00 | 43 | 945.8 |
| 20260510043027 | 47 | 310 | 0.0 | 2.0 | 0.00 | 0.00 | 0.00 | 42 | 945.6 |
| 20260510041525 | 48 | 310 | 0.0 | 1.0 | 0.00 | 0.00 | 0.00 | 42 | 945.5 |
| 20260510040028 | 49 | 310 | 0.0 | 3.0 | 0.00 | 0.00 | 0.00 | 41 | 945.3 |
| 20260510034531 | 49 | 310 | 0.0 | 3.0 | 0.00 | 0.00 | 0.00 | 44 | 945.1 |
| 20260510033018 | 50 | 310 | 0.0 | 3.0 | 0.00 | 0.00 | 0.00 | 40 | 944.9 |
| 20260510031519 | 50 | 310 | 0.0 | 2.0 | 0.00 | 0.00 | 0.00 | 37 | 944.7 |
| 20260510030015 | 51 | 310 | 0.0 | 3.0 | 0.00 | 0.00 | 0.00 | 36 | 944.4 |
| 20260510024515 | 52 | 310 | 0.0 | 3.0 | 0.00 | 0.00 | 0.00 | 35 | 944.2 |
| 20260510023010 | 54 | 310 | 0.0 | 2.0 | 0.00 | 0.00 | 0.00 | 32 | 943.9 |
| 20260510021521 | 56 | 310 | 1.0 | 6.0 | 0.00 | 0.00 | 0.00 | 30 | 943.8 |
| 20260510020009 | 57 | 324 | 2.0 | 5.0 | 0.00 | 0.00 | 0.00 | 29 | 943.6 |
| 20260510014508 | 58 | 308 | 2.0 | 9.0 | 0.00 | 0.00 | 0.00 | 29 | 943.5 |
| 20260510013006 | 59 | 329 | 3.0 | 8.0 | 0.00 | 0.00 | 0.00 | 29 | 943.4 |
| 20260510011506 | 60 | 317 | 3.0 | 11.0 | 0.00 | 0.00 | 0.00 | 29 | 943.3 |
| 20260510010007 | 61 | 304 | 3.0 | 12.0 | 0.00 | 0.00 | 0.00 | 30 | 943.3 |
| 20260510004505 | 62 | 302 | 4.0 | 12.0 | 0.00 | 0.00 | 0.00 | 30 | 943.1 |
| 20260510003004 | 62 | 322 | 7.0 | 13.0 | 0.00 | 0.00 | 0.00 | 29 | 943.0 |
| 20260510001503 | 63 | 301 | 6.0 | 11.0 | 0.00 | 0.00 | 0.00 | 29 | 943.0 |
| 20260510000006 | 63 | 303 | 9.0 | 14.0 | 0.00 | 0.00 | 0.00 | 29 | 943.0 |
| 20260509234501 | 63 | 305 | 7.0 | 16.0 | 0.00 | 0.00 | 0.00 | 29 | 942.9 |
| 20260509233100 | 63 | 295 | 9.0 | 14.0 | 0.00 | 0.00 | 0.00 | 29 | 942.8 |
| 20260509231600 | 63 | 293 | 8.0 | 18.0 | 0.00 | 0.00 | 0.00 | 30 | 942.9 |
| 20260509230059 | 64 | 288 | 8.0 | 16.0 | 0.00 | 0.00 | 0.00 | 29 | 942.8 |
| 20260509224602 | 64 | 298 | 6.0 | 18.0 | 0.00 | 0.00 | 0.00 | 28 | 942.7 |
| 20260509223106 | 63 | 286 | 4.0 | 14.0 | 0.00 | 0.00 | 0.00 | 29 | 942.7 |
| 20260509221606 | 64 | 317 | 6.0 | 15.0 | 0.00 | 0.00 | 0.00 | 30 | 942.8 |